FW5810 Weather Reports


time (UTC)temp
F
wind
direction
speed
knots
gust
knots
rain 1hr
in
rain 24hr
in
rain mn
in
humidity
%
barometer
mb
20260507142845 53 268 1.7 3.5 0.00 0.00 0.00 51 1013.4
20260507142341 54 255 6.1 8.7 0.00 0.00 0.00 52 1013.5
20260507141838 53 279 1.7 3.5 0.00 0.00 0.00 53 1013.7
20260507141335 53 231 4.3 6.1 0.00 0.00 0.00 56 1013.7
20260507140831 53 163 3.5 8.7 0.00 0.00 0.00 54 1013.5
20260507140328 53 288 1.7 3.5 0.00 0.00 0.00 57 1013.8
20260507135826 52 170 1.7 4.3 0.00 0.00 0.00 57 1013.8
20260507135322 52 125 0.9 3.5 0.00 0.00 0.00 58 1014.1
20260507134820 52 270 2.6 3.5 0.00 0.00 0.00 60 1013.8
20260507134316 51 246 2.6 3.5 0.00 0.00 0.00 59 1014.1
20260507133811 51 177 1.7 4.3 0.00 0.00 0.00 60 1014.0
20260507133308 51 251 1.7 3.5 0.00 0.00 0.00 62 1014.3
20260507132806 51 238 2.6 2.6 0.00 0.00 0.00 62 1014.1
20260507132306 51 284 0.9 2.6 0.00 0.00 0.00 62 1014.1
20260507131759 50 263 1.7 2.6 0.00 0.00 0.00 63 1014.2
20260507131256 50 222 2.6 3.5 0.00 0.00 0.00 62 1014.1
20260507130753 50 234 1.7 2.6 0.00 0.00 0.00 64 1014.1
20260507130251 51 289 1.7 3.5 0.00 0.00 0.00 63 1014.2
20260507125749 50 269 1.7 2.6 0.00 0.00 0.00 63 1014.2
20260507125246 49 241 2.6 4.3 0.00 0.00 0.00 62 1014.1
20260507124743 49 300 0.9 4.3 0.00 0.00 0.00 62 1014.0
20260507124240 49 246 1.7 3.5 0.00 0.00 0.00 64 1014.1
20260507123738 49 251 3.5 4.3 0.00 0.00 0.00 62 1014.0
20260507123236 49 207 3.5 3.5 0.00 0.00 0.00 64 1014.1
20260507122731 49 217 1.7 6.1 0.00 0.00 0.00 64 1014.0
20260507122227 49 218 7.0 7.0 0.00 0.00 0.00 65 1013.9
20260507121722 48 190 3.5 6.1 0.00 0.00 0.00 66 1014.0
20260507121218 48 226 1.7 2.6 0.00 0.00 0.00 68 1014.0
20260507120715 47 152 1.7 2.6 0.00 0.00 0.00 71 1014.0
20260507120212 47 173 0.9 2.6 0.00 0.00 0.00 71 1014.0
20260507115708 46 240 0.0 3.5 0.00 0.00 0.00 74 1014.1
20260507115204 44 239 0.0 2.6 0.00 0.00 0.00 75 1014.2
20260507114659 44 239 0.0 0.9 0.00 0.00 0.00 77 1014.2
20260507114157 44 222 1.7 2.6 0.00 0.00 0.00 78 1014.1
20260507113654 44 220 1.7 2.6 0.00 0.00 0.00 77 1014.2
20260507113151 44 233 0.9 2.6 0.00 0.00 0.00 78 1014.0
20260507112649 44 254 1.7 3.5 0.00 0.00 0.00 78 1014.1
20260507112145 43 228 1.7 2.6 0.00 0.00 0.00 79 1014.1
20260507111643 43 223 1.7 2.6 0.00 0.00 0.00 81 1014.0
20260507111139 42 227 0.0 2.6 0.00 0.00 0.00 82 1014.0
20260507110636 42 219 0.0 0.9 0.00 0.00 0.00 83 1013.9
20260507110133 41 226 0.9 0.9 0.00 0.00 0.00 84 1014.1
20260507105629 41 225 0.0 0.9 0.00 0.00 0.00 86 1013.9
20260507105125 41 225 0.0 0.0 0.00 0.00 0.00 87 1013.8
20260507104623 40 225 0.0 0.0 0.00 0.00 0.00 88 1013.8
20260507104119 40 224 0.0 0.9 0.00 0.00 0.00 89 1013.9
20260507103615 40 224 0.0 0.0 0.00 0.00 0.00 88 1013.7
20260507103112 39 225 0.0 0.9 0.00 0.00 0.00 89 1013.5
20260507102609 39 227 0.0 0.9 0.00 0.00 0.00 90 1013.7
20260507102105 39 227 0.0 0.0 0.00 0.00 0.00 90 1013.8
20260507101601 39 228 0.0 0.0 0.00 0.00 0.00 90 1013.7
20260507101057 40 227 0.0 0.0 0.00 0.00 0.00 90 1013.8
20260507100554 40 262 0.0 0.9 0.00 0.00 0.00 91 1013.5
20260507100052 39 262 0.9 0.9 0.00 0.00 0.00 93 1013.5
20260507095550 39 262 1.7 2.6 0.00 0.00 0.00 95 1013.7
20260507095046 39 205 0.0 0.9 0.00 0.00 0.00 96 1013.5
20260507094542 39 111 0.9 0.9 0.00 0.00 0.00 97 1013.4
20260507094040 39 104 0.9 0.9 0.00 0.00 0.00 97 1013.5
20260507093537 38 78 0.0 0.0 0.00 0.00 0.00 97 1013.4
20260507093036 38 79 0.0 0.9 0.00 0.00 0.00 97 1013.7
20260507092532 37 72 0.0 0.0 0.00 0.00 0.00 97 1013.8
20260507092029 37 72 0.0 0.9 0.00 0.00 0.00 97 1013.7
20260507091525 37 72 0.0 0.0 0.00 0.00 0.00 97 1013.7
20260507091021 36 72 0.0 0.0 0.00 0.00 0.00 97 1013.7
20260507090517 37 72 0.0 0.0 0.00 0.00 0.00 97 1013.8
20260507090014 37 72 0.0 0.0 0.00 0.00 0.00 97 1013.8
20260507085511 37 72 0.0 0.0 0.00 0.00 0.00 97 1013.7
20260507085008 37 72 0.0 0.0 0.00 0.00 0.00 97 1014.0
20260507084505 37 72 0.0 0.0 0.00 0.00 0.00 97 1013.9
20260507084002 36 72 0.0 0.0 0.00 0.00 0.00 97 1013.8
20260507083458 36 72 0.0 0.0 0.00 0.00 0.00 96 1013.7
20260507082954 37 72 0.0 0.0 0.00 0.00 0.00 96 1013.9
20260507082451 37 72 0.0 0.0 0.00 0.00 0.00 96 1013.8
20260507081947 37 72 0.0 0.0 0.00 0.00 0.00 96 1013.9
20260507081444 37 72 0.9 0.9 0.00 0.00 0.00 96 1014.0
20260507080941 37 72 0.0 0.0 0.00 0.00 0.00 96 1014.0
20260507080436 37 72 0.0 0.9 0.00 0.00 0.00 96 1014.1
20260507075932 37 73 0.0 0.9 0.00 0.00 0.00 96 1013.8
20260507075429 37 68 0.0 0.0 0.00 0.00 0.00 96 1013.9
20260507074925 37 68 0.0 0.0 0.00 0.00 0.00 96 1014.0
20260507074422 37 68 0.0 0.0 0.00 0.00 0.00 96 1014.1
20260507073920 37 68 0.0 0.0 0.00 0.00 0.00 96 1013.9
20260507073416 37 68 0.0 0.0 0.00 0.00 0.00 96 1014.0
20260507072913 37 68 0.0 0.0 0.00 0.00 0.00 95 1014.0
20260507072411 37 68 0.0 0.0 0.00 0.00 0.00 95 1014.2
20260507071908 37 68 0.0 0.0 0.00 0.00 0.00 95 1014.1
20260507071405 37 68 0.0 0.0 0.00 0.00 0.00 95 1014.0
20260507070901 38 68 0.0 0.0 0.00 0.00 0.00 95 1013.8
20260507070359 38 68 0.0 0.0 0.00 0.00 0.00 95 1014.1
20260507065855 37 68 0.0 0.0 0.00 0.00 0.00 95 1014.0
20260507065352 37 68 0.0 0.0 0.00 0.00 0.00 94 1014.0
20260507064849 38 68 0.0 0.0 0.00 0.00 0.00 94 1014.1
20260507064348 38 68 0.0 0.0 0.00 0.00 0.00 94 1014.2
20260507063845 38 68 0.0 0.0 0.00 0.00 0.00 94 1014.3
20260507063342 38 68 0.0 0.0 0.00 0.00 0.00 93 1014.3
20260507062839 38 68 0.0 0.0 0.00 0.00 0.00 93 1014.2
20260507062335 39 68 0.0 0.0 0.00 0.00 0.00 93 1014.3
20260507061833 39 68 0.0 0.0 0.00 0.00 0.00 92 1014.5
20260507061331 39 68 0.0 0.0 0.00 0.00 0.00 92 1014.5
20260507060830 40 68 0.0 0.0 0.00 0.00 0.00 92 1014.6
20260507060326 40 68 0.0 0.0 0.00 0.00 0.00 91 1014.7
20260507055823 40 68 0.0 0.0 0.00 0.00 0.00 91 1014.7
20260507055318 40 68 0.0 0.0 0.00 0.00 0.00 89 1014.6
20260507054815 41 68 0.0 0.0 0.00 0.00 0.00 89 1014.6
20260507054311 41 68 0.0 0.0 0.00 0.00 0.00 88 1014.6
20260507053808 41 68 0.0 0.0 0.00 0.00 0.00 86 1014.6
20260507053306 42 68 0.0 0.0 0.00 0.00 0.00 84 1014.6
20260507052805 42 68 0.0 0.0 0.00 0.00 0.00 84 1014.8
20260507052301 42 68 0.0 0.0 0.00 0.00 0.00 83 1014.7
20260507051759 42 68 0.0 0.0 0.00 0.00 0.00 82 1014.9
20260507051256 43 68 0.0 0.0 0.00 0.00 0.00 81 1014.7
20260507050752 44 68 0.0 0.0 0.00 0.00 0.00 80 1014.6
20260507050249 44 68 0.9 0.9 0.00 0.00 0.00 77 1014.7
20260507045746 44 68 0.0 0.0 0.00 0.00 0.00 77 1014.9
20260507045242 44 68 0.0 0.0 0.00 0.00 0.00 76 1014.9
20260507044740 44 69 0.0 0.9 0.00 0.00 0.00 75 1014.8
20260507044236 44 69 1.7 0.9 0.00 0.00 0.00 75 1014.9
20260507043732 44 68 1.7 2.6 0.00 0.00 0.00 74 1014.8
20260507043229 44 67 1.7 0.9 0.00 0.00 0.00 75 1014.9
20260507042725 44 63 0.9 0.9 0.00 0.00 0.00 75 1015.0
20260507042220 44 56 0.9 0.9 0.00 0.00 0.00 75 1015.2
20260507041718 44 56 0.9 0.9 0.00 0.00 0.00 73 1015.2
20260507041214 44 56 0.9 0.9 0.00 0.00 0.00 72 1015.3
20260507040711 44 56 0.0 0.9 0.00 0.00 0.00 71 1015.4
20260507040207 44 55 0.0 0.0 0.00 0.00 0.00 71 1015.2
20260507035704 45 55 0.0 0.9 0.00 0.85 0.85 72 1015.2
20260507035159 45 55 0.0 0.9 0.00 0.85 0.85 69 1015.2
20260507034656 46 55 0.0 0.0 0.00 0.85 0.85 69 1015.4
20260507034154 46 55 0.9 0.9 0.00 0.85 0.85 67 1015.3
20260507033652 46 55 0.0 0.9 0.00 0.85 0.85 67 1015.4
20260507033149 46 56 0.9 2.6 0.00 0.85 0.85 66 1015.3
20260507032647 46 46 1.7 3.5 0.00 0.85 0.85 66 1015.2
20260507032142 46 73 3.5 4.3 0.00 0.85 0.85 67 1015.2
20260507031639 46 57 0.9 0.9 0.00 0.85 0.85 68 1015.1
20260507031136 46 27 0.9 0.9 0.00 0.85 0.85 72 1015.2
20260507030633 46 27 0.0 0.0 0.00 0.85 0.85 72 1015.2
20260507030131 46 27 0.0 0.0 0.00 0.85 0.85 71 1015.3
20260507025627 47 27 0.0 0.0 0.00 0.85 0.85 69 1015.2
20260507025124 47 27 0.0 0.0 0.00 0.85 0.85 73 1015.2
20260507024622 47 27 0.0 0.0 0.00 0.85 0.85 73 1015.2
20260507024119 47 27 0.0 0.0 0.00 0.85 0.85 68 1015.2
20260507023614 47 27 0.0 0.0 0.00 0.85 0.85 68 1014.8
20260507023112 47 27 0.0 0.0 0.00 0.85 0.85 66 1015.0
20260507022609 47 27 0.0 0.0 0.00 0.85 0.85 66 1014.9
20260507022104 48 27 0.0 0.0 0.00 0.85 0.85 65 1014.9
20260507021601 48 27 0.0 0.0 0.00 0.85 0.85 64 1014.9
20260507021057 48 27 0.0 0.0 0.00 0.85 0.85 63 1015.0
20260507020555 48 27 1.7 0.9 0.00 0.85 0.85 63 1014.8
20260507020051 48 27 0.0 0.0 0.00 0.85 0.85 64 1014.7
20260507015550 48 27 0.0 0.0 0.00 0.85 0.85 62 1014.7
20260507015047 48 27 0.9 0.9 0.00 0.85 0.85 61 1014.8
20260507014543 48 27 0.9 0.9 0.00 0.85 0.85 60 1014.6
20260507014039 48 27 0.0 0.0 0.00 0.85 0.85 58 1014.4
20260507013536 48 27 1.7 2.6 0.00 0.85 0.85 58 1014.4
20260507013033 48 34 1.7 2.6 0.00 0.85 0.85 58 1014.5
20260507012531 48 37 0.9 0.9 0.00 0.85 0.85 59 1014.4
20260507012026 48 37 0.0 0.9 0.00 0.85 0.85 58 1014.3
20260507011524 48 37 0.0 0.9 0.00 0.85 0.85 59 1014.4
20260507011020 48 37 0.0 0.9 0.00 0.85 0.85 58 1014.3
20260507010514 48 37 1.7 3.5 0.00 0.85 0.85 57 1014.3
20260507010011 49 35 3.5 3.5 0.00 0.85 0.85 56 1014.3
20260507005509 49 25 1.7 6.1 0.00 0.85 0.85 57 1014.2
20260507005005 49 16 2.6 4.3 0.00 0.85 0.85 56 1014.4
20260507004502 49 14 3.5 3.5 0.00 0.85 0.85 54 1014.4
20260507004000 49 348 1.7 2.6 0.00 0.85 0.85 54 1014.3
20260507003454 49 358 2.6 4.3 0.00 0.85 0.85 53 1014.4
20260507002944 49 352 0.9 0.9 0.00 0.85 0.85 54 1014.3
20260507002441 49 352 0.9 2.6 0.00 0.85 0.85 51 1014.1
20260507001938 49 352 0.9 0.9 0.00 0.85 0.85 51 1014.1
20260507001434 50 8 1.7 3.5 0.00 0.85 0.85 51 1014.1
20260507000932 50 350 0.9 3.5 0.00 0.85 0.85 50 1014.2
20260507000427 50 14 1.7 2.6 0.00 0.85 0.85 51 1014.1
20260506235923 50 335 1.7 2.6 0.00 0.85 0.85 51 1014.3
20260506235421 50 336 0.9 3.5 0.00 0.85 0.85 50 1014.4
20260506234916 50 0 1.7 3.5 0.00 0.85 0.85 51 1014.2
20260506234414 50 342 0.9 0.9 0.00 0.85 0.85 51 1014.1
20260506233911 50 330 0.9 4.3 0.00 0.85 0.85 50 1014.3
20260506233407 50 335 1.7 2.6 0.00 0.85 0.85 50 1014.0
20260506232904 50 338 1.7 3.5 0.00 0.85 0.85 50 1014.2
20260506232400 50 352 1.7 3.5 0.00 0.85 0.85 50 1014.2
20260506231856 50 9 5.2 10.4 0.00 0.85 0.85 48 1014.0
20260506231354 50 324 6.1 10.4 0.00 0.85 0.85 48 1014.0
20260506230851 51 344 5.2 6.1 0.00 0.85 0.85 49 1014.0
20260506230348 51 349 2.6 6.1 0.00 0.85 0.85 50 1013.9
20260506225844 51 334 4.3 9.6 0.00 0.85 0.85 48 1014.0
20260506225341 51 340 2.6 4.3 0.00 0.85 0.85 48 1013.8
20260506224833 51 355 4.3 6.1 0.00 0.85 0.85 49 1014.0
20260506224330 51 331 3.5 7.0 0.00 0.85 0.85 46 1013.8
20260506223826 51 6 5.2 8.7 0.00 0.85 0.85 46 1013.7
20260506223321 51 6 7.8 9.6 0.00 0.85 0.85 46 1013.4
20260506222819 51 35 4.3 4.3 0.00 0.85 0.85 45 1013.4
20260506222314 51 25 8.7 10.4 0.00 0.85 0.85 44 1013.3
20260506221812 52 350 6.1 7.0 0.00 0.85 0.85 46 1013.3
20260506221310 52 22 4.3 6.1 0.00 0.85 0.85 47 1013.5
20260506220807 52 5 2.6 3.5 0.00 0.85 0.85 46 1013.4
20260506220302 52 322 1.7 2.6 0.00 0.85 0.85 45 1013.1
20260506215759 52 320 4.3 4.3 0.00 0.85 0.85 45 1013.3
20260506215255 52 13 4.3 7.0 0.00 0.85 0.85 45 1013.2
20260506214751 52 310 4.3 7.0 0.00 0.85 0.85 46 1013.0
20260506214248 52 4 1.7 6.1 0.00 0.85 0.85 48 1013.0
20260506213747 52 22 6.1 9.6 0.00 0.85 0.85 45 1012.9
20260506213243 52 34 6.1 7.0 0.00 0.85 0.85 43 1012.9
20260506212740 52 358 5.2 9.6 0.00 0.85 0.85 43 1013.0
20260506212236 53 341 6.1 12.2 0.00 0.85 0.85 44 1012.9
20260506211726 53 5 8.7 10.4 0.00 0.85 0.85 42 1012.6
20260506211222 53 342 6.1 10.4 0.00 0.85 0.85 44 1012.6
20260506210719 53 4 3.5 9.6 0.00 0.85 0.85 43 1012.8
20260506210216 54 6 7.8 12.2 0.00 0.85 0.85 42 1012.9
20260506205713 53 329 4.3 4.3 0.00 0.85 0.85 43 1012.8
20260506205208 53 297 1.7 4.3 0.00 0.85 0.85 44 1012.8
20260506204706 53 321 6.1 7.0 0.00 0.85 0.85 43 1012.7
20260506204203 53 3 6.1 8.7 0.00 0.85 0.85 41 1012.7
20260506203701 53 331 5.2 6.1 0.00 0.85 0.85 41 1012.8
20260506203158 53 16 7.0 12.2 0.00 0.85 0.85 42 1012.7
20260506202656 53 1 6.1 8.7 0.00 0.85 0.85 43 1012.8
20260506202151 53 359 6.1 10.4 0.00 0.85 0.85 39 1012.7
20260506201649 54 325 4.3 10.4 0.00 0.85 0.85 40 1012.7
20260506201145 54 339 5.2 8.7 0.00 0.85 0.85 40 1012.8
20260506200642 54 354 1.7 4.3 0.00 0.85 0.85 44 1012.8
20260506200138 54 248 1.7 7.0 0.00 0.85 0.85 39 1012.6
20260506195635 55 313 6.1 9.6 0.00 0.85 0.85 39 1012.6
20260506195131 54 38 7.8 9.6 0.00 0.85 0.85 42 1012.5
20260506194629 54 338 4.3 9.6 0.00 0.85 0.85 39 1012.8
20260506194125 54 323 4.3 6.1 0.00 0.85 0.85 41 1012.8
20260506193623 53 283 6.1 13.9 0.00 0.85 0.85 38 1012.8
20260506193120 53 349 7.0 12.2 0.00 0.85 0.85 39 1012.7
20260506192617 54 346 4.3 6.1 0.00 0.85 0.85 41 1012.9
20260506192113 54 294 3.5 7.0 0.00 0.85 0.85 39 1012.8
20260506191609 54 288 5.2 8.7 0.00 0.85 0.85 41 1012.8
20260506191105 55 2 4.3 6.1 0.00 0.85 0.85 45 1012.7
20260506190603 54 302 3.5 7.0 0.00 0.85 0.85 42 1012.7
20260506190100 54 343 5.2 9.6 0.00 0.85 0.85 40 1013.0
20260506185557 55 0 5.2 13.0 0.00 0.85 0.85 42 1012.9
20260506185053 55 359 4.3 8.7 0.00 0.85 0.85 40 1012.7
20260506184551 55 349 8.7 16.5 0.00 0.85 0.85 41 1012.6
20260506184048 54 357 6.1 9.6 0.00 0.85 0.85 49 1012.8
20260506183544 54 302 4.3 7.0 0.00 0.85 0.85 44 1012.6
20260506183040 54 252 6.1 9.6 0.00 0.85 0.85 49 1012.6
20260506182538 55 1 4.3 9.6 0.00 0.85 0.85 45 1012.4
20260506182035 55 355 5.2 9.6 0.00 0.85 0.85 45 1012.3
20260506181533 54 353 4.3 12.2 0.00 0.85 0.85 48 1012.7
20260506181029 54 318 4.3 10.4 0.00 0.85 0.85 47 1012.5
20260506180526 54 6 10.4 16.5 0.00 0.85 0.85 47 1012.5
20260506180023 54 38 5.2 10.4 0.00 0.85 0.85 50 1012.5
20260506175519 54 339 8.7 13.0 0.00 0.85 0.85 48 1012.6
20260506175016 55 0 8.7 12.2 0.00 0.85 0.85 47 1012.4
20260506174514 54 350 12.2 13.9 0.00 0.85 0.85 47 1012.6
20260506174010 55 31 10.4 12.2 0.00 0.85 0.85 46 1012.5
20260506173508 55 304 2.6 3.5 0.00 0.85 0.85 53 1012.7
20260506173005 55 286 7.0 12.2 0.00 0.85 0.85 48 1012.4
20260506172502 54 28 4.3 7.0 0.00 0.85 0.85 50 1012.5
20260506171958 54 320 7.0 15.6 0.00 0.85 0.85 51 1012.3
20260506171455 54 326 5.2 10.4 0.00 0.85 0.85 52 1012.4
20260506170953 54 345 5.2 18.2 0.00 0.85 0.85 52 1012.3
20260506170449 54 302 8.7 10.4 0.00 0.85 0.85 55 1012.4
20260506165942 53 291 3.5 12.2 0.00 0.85 0.85 62 1012.4
20260506165440 54 292 2.6 8.7 0.00 0.85 0.85 60 1012.4
20260506164936 54 307 3.5 8.7 0.00 0.85 0.85 60 1012.4
20260506164433 53 347 11.3 13.0 0.00 0.85 0.85 61 1012.3
20260506163925 53 339 2.6 12.2 0.00 0.85 0.85 63 1012.1
20260506163420 53 313 0.9 4.3 0.00 0.85 0.85 62 1012.1
20260506162915 53 346 4.3 7.0 0.00 0.85 0.85 61 1011.9
20260506162413 53 334 9.6 13.9 0.00 0.85 0.85 59 1012.0
20260506161910 53 337 5.2 7.0 0.00 0.85 0.85 64 1011.9
20260506161408 53 273 3.5 8.7 0.00 0.85 0.85 67 1012.1
20260506160905 53 37 6.1 9.6 0.00 0.85 0.85 61 1012.1
20260506160402 52 332 1.7 4.3 0.00 0.85 0.85 66 1012.1
20260506155900 52 353 3.5 12.2 0.00 0.85 0.85 67 1012.1
20260506155356 52 331 2.6 6.1 0.00 0.85 0.85 64 1012.0
20260506153514 52 347 9.6 10.4 0.00 0.85 0.85 67 1011.7
20260506153011 52 354 6.1 9.6 0.00 0.85 0.85 68 1011.8
20260506152508 50 7 3.5 4.3 0.00 0.85 0.85 74 1011.6
20260506152006 50 348 7.8 9.6 0.00 0.85 0.85 72 1011.6
20260506151503 50 321 2.6 6.1 0.00 0.85 0.85 77 1011.6
20260506151001 50 276 2.6 6.1 0.00 0.85 0.85 79 1011.4
20260506150456 49 339 7.8 9.6 0.00 0.85 0.85 79 1011.3
20260506145954 49 357 5.2 8.7 0.00 0.85 0.85 79 1011.4
20260506145450 49 5 7.8 8.7 0.00 0.85 0.85 82 1011.2
20260506144948 49 357 6.1 10.4 0.00 0.85 0.85 80 1011.0
20260506144444 49 316 2.6 4.3 0.00 0.85 0.85 84 1011.0
20260506143942 49 353 6.1 7.0 0.00 0.85 0.85 84 1011.2
20260506143439 48 49 2.6 4.3 0.00 0.85 0.85 86 1011.0